Regional Weather Roundup
Issued by NWS Green Bay, WI

Home | Current Version | Previous Version | Graphics & Text | Print | Product List | Glossary Off
Versions: 1 2 3 4 5 6 7 8 9 10 11 12 13 14 15 16 17 18 19 20 21 22 23 24 25 26 27 28 29 30 31 32 33 34 35 36 37 38 39 40 41 42 43 44 45 46 47 48 49 50

670
ASUS43 KGRB 251900
RWRGRB

NORTH-CENTRAL AND NORTHEAST WISCONSIN REGIONAL WEATHER ROUNDUP
NATIONAL WEATHER SERVICE GREEN BAY WI
200 PM CDT SAT MAR 25 2017

WIZ005-009-010>012-018-019-252000-
NORTH CENTRAL WISCONSIN

CITY           SKY/WX    TMP DP  RH WIND       PRES   REMARKS
IRONWOOD       CLOUDY    37  29  72 E10       30.23F
MANITOWISH WTR NOT AVBL
ARBOR VITAE    NOT AVBL
EAGLE RIVER    NOT AVBL
LAND O LAKES   NOT AVBL
RHINELANDER    CLOUDY    37  31  78 E16       30.20F
PHILLIPS       NOT AVBL
ANTIGO         NOT AVBL
TOMAHAWK       NOT AVBL
MERRILL        NOT AVBL
$$

WIZ013-073-252000-
NORTHEAST WISCONSIN

CITY           SKY/WX    TMP DP  RH WIND       PRES   REMARKS
IRON MOUNTAIN  CLOUDY    39  28  64 SE13G21   30.24F
MARINETTE        N/A    N/A N/A N/A MISG        N/A
$$

WIZ017-030-035>037-045-252000-
CENTRAL WISCONSIN

CITY           SKY/WX    TMP DP  RH WIND       PRES   REMARKS
MEDFORD        NOT AVBL
WAUSAU         CLOUDY    39  32  76 E12       30.14F
MOSINEE        CLOUDY    37  34  87 E15G25    30.16F
MARSHFIELD     CLOUDY    38  32  79 E22G28    30.12F
WISC RAPIDS    CLOUDY    39  34  82 E16G29    30.14F
STEVENS POINT  NOT AVBL
WAUPACA        NOT AVBL
SHAWANO        NOT AVBL
CLINTONVILLE   NOT AVBL
WAUTOMA        CLOUDY    37  34  89 NE17G25   30.13
$$

WIZ038-039-048-051-252000-
FOX VALLEY

CITY           SKY/WX    TMP DP  RH WIND       PRES   REMARKS
NWS GREEN BAY  CLOUDY    37  36  96 NE18      30.19F
APPLETON       CLOUDY    37  34  87 NE17G25   30.14F
OSHKOSH        CLOUDY    37  34  89 NE14      30.14F
FOND DU LAC    CLOUDY    39  33  79 E16G26    30.13F
$$

WIZ022-050-052-252000-
EAST CENTRAL WISCONSIN

CITY           SKY/WX    TMP DP  RH WIND       PRES   REMARKS
EPHRAIM        NOT AVBL
WASHINGTON ISL NOT AVBL
STURGEON BAY   CLOUDY    37  32  82 NE10G25   30.23F
MANITOWOC      NOT AVBL
SHEBOYGAN      CLOUDY    37  34  89 NE20      30.15F
$$

LMZ563-521-522-541>543-252000-
LAKESHORE

STATION/POSITION TIME  TEMP    WIND        PRES    VSBY  WAVE
                       AIR SEA DIR/SP/G                  HT/PER
                 (UTC) (F)     (DEG/KT/KT) (MB)    (MI)  (FT/S)
SHEBOYGAN LKSHOR 1800   37      30/ 19/ 20 1022.0F
KEWAUNEE LKSHORE 1830   36      60/ 12/ 20 1022.5F
NORTHPORT PIER   1840   34      60/ 17/ 21 1025.1F
CHAMBERS ISLAND  1840   34      40/ 15/ 21 1024.7F
MENOMINEE LKSHOR 1830   33      30/ 20/ 22 1024.0F
$$




USA.gov is the U.S. government's official web portal to all federal, state and local government web resources and services.